Flag for Liechtenstein Weather past 2 weeks in Vaduz, Liechtenstein

Now
65 °F

Partly sunny.


Feels Like: 65 °F
Forecast: 49 / 73 °F
Wind: 5 mph from Southeast

Location: Vaduz

Current Time: May 29, 2015 at 9:09:45 PM

Latest Report: May 29, 2015 at 8:00 PM


Visibility: 9 mi

Pressure: 29.83 "Hg

Humidity: 63%

Dew point: 53 °F

Location of VaduzLocation

Historic Weather in Vaduz — Graph

°F

Vaduz temperature yesterday

Maximum temperature yesterday: 71 °F (at 6:00 PM)
Minimum temperature yesterday: 47 °F (at 12:00 AM)
Average temperature yesterday: 59 °F

Past Weeks' High & Low Weather Summary

 TemperatureHumidityPressure
High74 °F (May 29, 3:00 PM)96% (May 19, 4:00 AM)30.33 "Hg (May 19, 4:00 AM)
Low41 °F (May 21, 4:00 AM)37% (May 28, 2:00 PM)29.72 "Hg (May 18, 6:00 PM)
Average55 °F76%30.07 "Hg
* Reported May 14 7:00 PM — May 29 7:00 PM, Vaduz, Weather by CustomWeather, © 2015

Note: Actual official high and low records may vary slightly from our data, if they occured in-between our weather recording intervals... More about our weather records

Advertising

Vaduz weather history for previous 24 hours

 ConditionsComfort  
Time TempWeatherWind HumidityBarometerVisibility
7:00 PM
Fri, May 29
70 °FMild.1 mph57%29.79 "HgN/A
6:00 PM73 °FMild.1 mph39%29.77 "HgN/A
5:00 PM74 °FScattered clouds.2 mph40%29.78 "Hg4 mi
4:00 PM72 °FMild.5 mph41%29.79 "HgN/A
3:00 PM74 °FMild.5 mph43%29.79 "HgN/A
2:00 PM73 °FFog.5 mph40%29.82 "Hg9 mi
1:00 PM70 °FMild.2 mph44%29.86 "HgN/A
12:00 PM68 °FMild.2 mph43%29.89 "HgN/A
10:00 AM63 °FMild.3 mph47%29.93 "HgN/A
9:00 AM59 °FRefreshingly cool.7 mph56%29.96 "HgN/A
8:00 AM58 °FOvercast.3 mph54%29.99 "Hg4 mi
7:00 AM57 °FRefreshingly cool.5 mph57%29.99 "HgN/A
6:00 AM55 °FCool.6 mph60%30.01 "HgN/A
5:00 AM56 °FCool.7 mph60%30.01 "HgN/A
4:00 AM56 °FCool.3 mph63%30.02 "HgN/A
3:00 AM57 °FCool.5 mph62%30.02 "HgN/A
2:00 AM52 °FCool.2 mph82%30.05 "HgN/A
10:00 PM
Thu, May 28
58 °FCool.1 mph73%30.01 "HgN/A
9:00 PM62 °FRefreshingly cool.1 mph56%29.98 "HgN/A
Weather by CustomWeather, © 2015

See weather overviewHow to use our weather pages